FW5801 Weather Reports


Display with metric or nautical units.
time (UTC)temp
F
wind
direction
speed
MPH
gust
MPH
rain 1hr
in
rain 24hr
in
rain mn
in
humidity
%
barometer
mb
20200410094514 32 254 6.0 13.0 0.00 0.00 0.00 86 1011.6
20200410094024 32 325 6.0 13.0 0.00 0.00 0.00 86 1011.5
20200410093537 32 285 6.0 13.0 0.00 0.00 0.00 86 1011.5
20200410093152 32 304 5.0 13.0 0.00 0.00 0.00 86 1011.4
20200410092011 32 302 7.0 13.0 0.00 0.00 0.00 86 1011.4
20200410091046 32 281 7.0 13.0 0.00 0.00 0.00 86 1011.3
20200410090610 32 19 7.0 14.0 0.00 0.00 0.00 86 1011.2
20200410085503 32 306 8.0 15.0 0.00 0.00 0.00 85 1011.1
20200410085023 32 336 8.0 15.0 0.00 0.00 0.00 85 1011.0
20200410084601 32 309 7.0 12.0 0.00 0.00 0.00 85 1011.0
20200410084058 32 344 6.0 13.0 0.00 0.00 0.00 85 1011.0
20200410083009 32 288 7.0 13.0 0.00 0.00 0.00 85 1010.9
20200410082524 32 304 7.0 13.0 0.00 0.00 0.00 85 1010.8
20200410082107 32 302 8.0 15.0 0.00 0.00 0.00 85 1010.7
20200410081647 32 325 6.0 15.0 0.00 0.00 0.00 85 1010.7
20200410081057 32 324 6.0 14.0 0.00 0.00 0.00 85 1010.5
20200410080555 32 299 9.0 14.0 0.00 0.00 0.00 85 1010.3
20200410080442 32 314 7.0 13.0 0.00 0.00 0.00 85 1010.3
20200410075547 32 267 7.0 13.0 0.00 0.00 0.00 85 1010.3
20200410075046 32 285 7.0 14.0 0.00 0.00 0.00 85 1010.2
20200410074658 32 294 8.0 14.0 0.00 0.00 0.00 85 1010.2
20200410074045 32 345 7.0 12.0 0.00 0.00 0.00 85 1010.2
20200410073545 32 331 7.0 12.0 0.00 0.00 0.00 86 1010.2
20200410073132 33 310 6.0 13.0 0.00 0.00 0.00 85 1010.1
20200410072543 33 309 7.0 14.0 0.00 0.00 0.00 85 1010.0
20200410072051 33 325 7.0 16.0 0.00 0.00 0.00 86 1010.0
20200410071543 33 337 7.0 16.0 0.00 0.00 0.00 86 1010.0
20200410071047 33 272 7.0 14.0 0.00 0.00 0.00 86 1010.0
20200410070541 33 341 7.0 15.0 0.00 0.00 0.00 86 1009.9
20200410070044 33 355 7.0 15.0 0.00 0.00 0.00 86 1009.8
20200410065544 33 313 9.0 15.0 0.00 0.00 0.00 86 1009.8
20200410065038 33 314 8.0 15.0 0.00 0.00 0.00 86 1009.8
20200410064551 33 22 7.0 14.0 0.00 0.00 0.00 86 1009.8
20200410064046 33 298 6.0 15.0 0.00 0.00 0.00 87 1009.7
20200410063537 33 299 7.0 15.0 0.00 0.00 0.00 87 1009.6
20200410063051 33 280 6.0 11.0 0.00 0.00 0.00 87 1009.7
20200410062535 33 285 4.0 10.0 0.00 0.00 0.00 87 1009.6
20200410062036 33 312 5.0 11.0 0.00 0.00 0.00 88 1009.6
20200410061536 33 238 7.0 12.0 0.00 0.00 0.00 88 1009.6
20200410061039 33 237 5.0 12.0 0.00 0.00 0.00 88 1009.6
20200410060533 33 329 5.0 13.0 0.00 0.00 0.00 88 1009.5
20200410060055 33 284 6.0 13.0 0.00 0.00 0.00 88 1009.6
20200410055533 33 270 7.0 13.0 0.00 0.00 0.00 88 1009.5
20200410055034 33 282 7.0 13.0 0.00 0.00 0.00 88 1009.5
20200410054619 33 281 6.0 12.0 0.00 0.00 0.00 88 1009.5
20200410054031 33 257 6.0 13.0 0.00 0.00 0.00 88 1009.5
20200410053535 33 245 6.0 12.0 0.00 0.00 0.00 88 1009.4
20200410053116 33 292 6.0 12.0 0.00 0.00 0.00 88 1009.5
20200410052538 33 271 6.0 13.0 0.00 0.00 0.00 88 1009.4
20200410052028 33 269 6.0 12.0 0.00 0.00 0.00 88 1009.3
20200410051605 33 268 7.0 12.0 0.00 0.00 0.00 88 1009.0
20200410051033 34 249 6.0 12.0 0.00 0.00 0.00 88 1008.9
20200410050528 34 252 6.0 11.0 0.00 0.00 0.00 88 1008.7
20200410050050 34 284 6.0 11.0 0.00 0.00 0.00 88 1008.8
20200410045528 34 295 6.0 12.0 0.00 0.03 0.00 88 1009.0
20200410045026 34 266 7.0 15.0 0.00 0.03 0.00 87 1009.0
20200410044545 34 254 8.0 15.0 0.00 0.03 0.00 88 1008.9
20200410044030 34 254 9.0 14.0 0.00 0.03 0.00 87 1009.1
20200410043524 34 265 8.0 13.0 0.00 0.03 0.00 87 1008.9
20200410043037 34 262 7.0 12.0 0.00 0.03 0.00 87 1008.8
20200410042522 34 266 6.0 13.0 0.00 0.03 0.00 87 1008.7
20200410042022 34 254 7.0 13.0 0.00 0.03 0.00 87 1008.6
20200410041533 34 0.0 0.0 0.00 0.03 0.00 87 1008.6
20200410041030 34 0.0 0.0 0.00 0.03 0.00 87 1008.5
20200410040517 33 0.0 0.0 0.00 0.03 0.00 87 1008.5
20200410040039 33 0.0 0.0 0.00 0.03 0.00 88 1008.5
20200410035518 33 0.0 0.0 0.00 0.33 0.03 89 1008.5
20200410035013 33 0.0 0.0 0.00 0.33 0.03 89 1008.6
20200410034512 33 0.0 0.0 0.00 0.33 0.03 89 1008.7
20200410034016 34 250 5.0 12.0 0.00 0.33 0.03 88 1008.7
20200410033510 34 250 5.0 12.0 0.00 0.33 0.03 88 1008.7
20200410033025 34 257 6.0 13.0 0.00 0.33 0.03 87 1008.7
20200410032508 34 263 6.0 15.0 0.00 0.33 0.03 87 1008.9
20200410032008 34 263 6.0 15.0 0.00 0.33 0.03 86 1008.7
20200410031551 35 236 6.0 11.0 0.00 0.33 0.03 86 1008.6
20200410031007 35 252 6.0 12.0 0.00 0.33 0.03 85 1008.7
20200410030506 35 259 4.0 12.0 0.00 0.33 0.03 86 1008.8
20200410030019 35 272 6.0 11.0 0.00 0.33 0.03 86 1008.9
20200410025505 35 269 5.0 10.0 0.00 0.34 0.03 87 1008.9
20200410025015 35 280 6.0 11.0 0.00 0.34 0.03 87 1008.9
20200410024529 35 272 7.0 14.0 0.00 0.34 0.03 87 1008.9
20200410024004 35 259 6.0 14.0 0.00 0.34 0.03 86 1009.0
20200410023505 36 292 5.0 11.0 0.00 0.34 0.03 84 1009.1
20200410023008 36 261 6.0 12.0 0.00 0.34 0.03 82 1008.9
20200410022505 36 323 6.0 12.0 0.00 0.34 0.03 81 1008.7
20200410022001 37 279 6.0 13.0 0.00 0.34 0.03 80 1008.8
20200410021500 37 355 8.0 14.0 0.00 0.34 0.03 82 1009.0
20200410021104 37 331 8.0 15.0 0.00 0.34 0.03 83 1009.2
20200410020600 37 281 9.0 15.0 0.00 0.34 0.03 83 1009.1
20200410020156 37 275 6.0 12.0 0.00 0.34 0.03 84 1008.9
20200410015559 36 257 6.0 13.0 0.00 0.34 0.03 84 1008.9
20200410015059 36 252 7.0 12.0 0.00 0.34 0.03 85 1009.0
20200410014742 36 266 5.0 11.0 0.00 0.34 0.03 85 1008.9
20200410014057 36 274 5.0 11.0 0.00 0.34 0.03 85 1008.9
20200410013557 36 277 7.0 11.0 0.00 0.34 0.03 85 1008.6
20200410013124 36 247 5.0 10.0 0.00 0.34 0.03 86 1008.6
20200410012604 36 265 5.0 10.0 0.00 0.34 0.03 86 1008.6
20200410012100 36 336 3.0 11.0 0.00 0.34 0.03 86 1008.6
20200410011626 36 272 6.0 11.0 0.00 0.34 0.03 86 1008.6
20200410010515 36 15 7.0 14.0 0.00 0.34 0.03 86 1008.7
20200410010115 36 287 9.0 23.0 0.00 0.34 0.03 85 1008.7
20200410005539 36 343 12.0 23.0 0.00 0.34 0.03 83 1008.6
20200410005110 38 344 14.0 24.0 0.00 0.34 0.03 79 1008.6
20200410004004 41 315 9.0 17.0 0.00 0.34 0.03 64 1007.9
20200410003526 41 305 9.0 18.0 0.00 0.34 0.03 63 1007.6
20200410002013 40 277 8.0 17.0 0.00 0.34 0.03 64 1007.2
20200410001539 40 323 10.0 17.0 0.00 0.34 0.03 66 1007.2
20200410001054 40 340 7.0 19.0 0.00 0.34 0.03 68 1007.2
20200409235524 42 319 17.0 28.0 0.00 0.34 0.03 64 1007.2
20200409235035 42 311 12.0 21.0 0.00 0.34 0.03 58 1007.1
20200409234630 42 340 6.0 21.0 0.00 0.34 0.03 58 1007.1
20200409233009 43 315 12.0 27.0 0.00 0.34 0.03 54 1006.8
20200409232526 44 297 17.0 27.0 0.00 0.34 0.03 53 1006.7
20200409231510 44 281 11.0 25.0 0.00 0.34 0.03 50 1006.4
20200409231014 44 306 15.0 23.0 0.00 0.34 0.03 49 1006.3
20200409230539 44 310 10.0 27.0 0.00 0.34 0.03 51 1006.2
20200409230134 44 316 17.0 27.0 0.00 0.34 0.03 51 1006.3
20200409225012 46 278 17.0 25.0 0.00 0.34 0.03 46 1006.0
20200409224547 46 275 12.0 23.0 0.00 0.34 0.03 46 1005.8
20200409224047 47 343 11.0 23.0 0.00 0.34 0.03 47 1005.7
20200409222513 47 291 13.0 26.0 0.00 0.34 0.03 45 1005.7
20200409222034 47 259 10.0 23.0 0.00 0.34 0.03 47 1005.8
20200409221613 47 186 11.0 21.0 0.00 0.34 0.03 46 1005.7
20200409220027 46 344 12.0 24.0 0.00 0.34 0.03 48 1005.6
20200409215544 46 311 10.0 24.0 0.00 0.34 0.03 48 1005.6
20200409215059 47 296 16.0 27.0 0.00 0.34 0.03 45 1005.5
20200409214011 47 311 16.0 26.0 0.00 0.34 0.03 43 1005.3
20200409213529 47 323 14.0 32.0 0.00 0.34 0.03 44 1005.3
20200409213111 47 309 16.0 32.0 0.00 0.34 0.03 43 1005.2
20200409211516 47 274 12.0 28.0 0.00 0.34 0.03 46 1005.0
20200409211033 47 259 13.0 27.0 0.00 0.34 0.03 44 1004.8
20200409210544 47 360 13.0 30.0 0.00 0.34 0.03 44 1004.9
20200409205016 48 360 14.0 27.0 0.00 0.34 0.03 46 1004.8
20200409204614 48 242 12.0 27.0 0.00 0.34 0.03 46 1004.7
20200409204105 48 307 11.0 30.0 0.00 0.34 0.03 47 1004.6
20200409203015 48 257 17.0 28.0 0.00 0.34 0.03 41 1004.6
20200409202640 48 286 16.0 28.0 0.00 0.34 0.03 42 1004.6
20200409202058 48 239 14.0 33.0 0.00 0.34 0.03 42 1004.7
20200409200521 49 288 15.0 28.0 0.00 0.34 0.03 40 1004.7
20200409200122 49 240 17.0 29.0 0.00 0.34 0.03 39 1004.7
20200409194512 49 246 10.0 22.0 0.00 0.34 0.03 43 1004.8
20200409194052 50 281 13.0 23.0 0.00 0.34 0.03 41 1004.8
20200409193603 51 314 14.0 29.0 0.00 0.34 0.03 39 1004.6
20200409192509 52 271 15.0 29.0 0.00 0.34 0.03 41 1004.6
20200409192034 52 262 16.0 25.0 0.00 0.34 0.03 44 1004.8
20200409191554 51 323 10.0 23.0 0.00 0.34 0.03 51 1004.8
20200409191100 50 349 10.0 23.0 0.00 0.34 0.03 49 1004.7
20200409190011 50 303 15.0 24.0 0.00 0.34 0.03 41 1004.8
20200409185540 51 340 12.0 30.0 0.00 0.34 0.03 46 1004.8
20200409185054 52 229 15.0 30.0 0.00 0.34 0.03 44 1004.9
20200409184004 50 327 10.0 20.0 0.00 0.34 0.03 49 1004.9
20200409183522 51 301 10.0 20.0 0.00 0.34 0.03 49 1004.9
20200409183059 51 11 10.0 20.0 0.00 0.34 0.03 49 1005.0
20200409181511 53 215 14.0 27.0 0.00 0.34 0.03 51 1004.9
20200409181027 53 267 12.0 24.0 0.00 0.34 0.03 53 1004.9
20200409180551 53 287 11.0 24.0 0.00 0.34 0.03 56 1005.0
20200409175017 53 282 9.0 20.0 0.00 0.34 0.03 51 1005.2
20200409174558 52 314 10.0 20.0 0.00 0.34 0.03 56 1005.5
20200409174058 52 245 9.0 17.0 0.00 0.34 0.03 54 1005.4
20200409173002 52 281 11.0 20.0 0.00 0.34 0.03 52 1005.3
20200409172524 52 323 10.0 17.0 0.00 0.34 0.03 54 1005.2
20200409172044 52 267 9.0 23.0 0.00 0.34 0.03 53 1005.2
20200409171633 52 262 13.0 23.0 0.00 0.34 0.03 55 1005.2
20200409170513 51 298 11.0 18.0 0.00 0.34 0.03 59 1005.3
20200409170034 51 289 8.0 18.0 0.00 0.34 0.03 59 1005.2
20200409165558 51 349 12.0 17.0 0.00 0.34 0.03 56 1005.4
20200409164503 51 321 11.0 19.0 0.00 0.34 0.03 59 1005.4
20200409164039 51 325 12.0 18.0 0.00 0.34 0.03 56 1005.4
20200409163544 51 303 11.0 19.0 0.00 0.34 0.03 56 1005.4
20200409162014 51 305 10.0 20.0 0.00 0.34 0.03 58 1005.8
20200409161554 51 319 11.0 21.0 0.00 0.34 0.03 59 1005.7
20200409161102 50 306 9.0 21.0 0.00 0.34 0.03 61 1005.7
20200409155520 48 320 9.0 17.0 0.00 0.34 0.03 67 1006.0
20200409155055 48 344 12.0 17.0 0.00 0.34 0.03 60 1005.9
20200409154638 49 254 10.0 18.0 0.00 0.34 0.03 63 1005.9
20200409153506 50 330 13.0 20.0 0.00 0.34 0.03 63 1006.0
20200409153043 50 317 10.0 19.0 0.00 0.34 0.03 65 1006.1
20200409152600 49 332 11.0 18.0 0.00 0.34 0.03 68 1006.1
20200409152101 48 306 11.0 21.0 0.00 0.34 0.03 66 1005.9
20200409151011 48 266 12.0 26.0 0.00 0.34 0.03 68 1005.8
20200409150522 47 300 14.0 26.0 0.00 0.34 0.03 66 1005.8
20200409150153 47 338 13.0 24.0 0.00 0.34 0.03 69 1005.9
20200409145556 46 323 12.0 23.0 0.00 0.34 0.03 70 1005.9
20200409144506 47 330 16.0 22.0 0.00 0.34 0.03 67 1005.6
20200409144025 47 330 16.0 25.0 0.00 0.34 0.03 69 1005.5
20200409143544 46 259 15.0 25.0 0.00 0.34 0.03 69 1005.6
20200409142007 45 322 15.0 25.0 0.00 0.34 0.03 73 1005.3
20200409141629 45 327 13.0 26.0 0.00 0.34 0.03 73 1005.1
20200409141035 46 344 15.0 26.0 0.00 0.34 0.03 71 1004.8
20200409140605 47 5 17.0 29.0 0.00 0.34 0.03 69 1004.8
20200409135504 48 271 13.0 24.0 0.00 0.34 0.03 70 1004.5
20200409135024 48 304 11.0 24.0 0.00 0.34 0.03 71 1004.4
20200409134552 48 348 10.0 26.0 0.00 0.34 0.03 74 1004.4
20200409133035 47 329 15.0 27.0 0.00 0.34 0.03 71 1004.4
20200409132606 47 287 14.0 24.0 0.00 0.34 0.03 73 1004.3
20200409132048 47 290 13.0 22.0 0.00 0.34 0.03 73 1004.1
20200409130514 46 320 13.0 25.0 0.00 0.34 0.03 75 1004.1
20200409130059 46 292 13.0 26.0 0.00 0.34 0.03 76 1004.1
20200409125607 46 344 17.0 26.0 0.00 0.34 0.03 75 1004.1
20200409124015 46 355 11.0 24.0 0.00 0.34 0.03 77 1004.0
20200409123543 46 350 14.0 24.0 0.00 0.34 0.03 76 1004.0
20200409123130 46 242 10.0 22.0 0.00 0.34 0.03 77 1003.7
20200409122019 46 313 13.0 24.0 0.00 0.34 0.03 78 1003.6
20200409121529 46 297 13.0 24.0 0.00 0.34 0.03 77 1003.5
20200409121040 46 267 16.0 25.0 0.00 0.34 0.03 77 1003.4
20200409115502 46 331 16.0 23.0 0.00 0.35 0.03 79 1003.0
20200409115025 47 264 11.0 19.0 0.00 0.35 0.03 80 1003.0
20200409114628 47 242 10.0 24.0 0.00 0.35 0.03 82 1002.8
20200409113510 47 5 10.0 22.0 0.00 0.35 0.03 82 1002.6
20200409113035 47 297 9.0 20.0 0.00 0.35 0.03 84 1002.4
20200409112554 46 329 11.0 20.0 0.00 0.35 0.03 83 1002.4
20200409111058 46 263 7.0 15.0 0.00 0.35 0.03 85 1002.1
20200409105512 47 277 8.0 16.0 0.00 0.35 0.03 84 1001.9
20200409105030 47 319 9.0 16.0 0.00 0.35 0.03 84 1002.0
20200409104555 47 261 8.0 18.0 0.00 0.35 0.03 83 1001.9
20200409103007 48 269 9.0 20.0 0.00 0.35 0.03 85 1001.9
20200409102521 48 316 8.0 21.0 0.00 0.35 0.03 84 1001.8
20200409102048 49 355 9.0 21.0 0.00 0.35 0.03 84 1001.5
20200409101718 49 285 14.0 21.0 0.00 0.35 0.03 84 1001.4
20200409100109 49 265 8.0 17.0 0.00 0.35 0.03 86 1001.4
20200409095545 49 269 7.0 18.0 0.00 0.35 0.03 87 1001.3
20200409095054 49 342 9.0 14.0 0.00 0.35 0.03 87 1001.2